Weather Roundup
Issued by NWS

Home | Current Version | Previous Version | Text Only | Print | Product List | Glossary On
Versions: 1 2 3 4 5 6 7 8 9 10 11 12 13 14 15 16 17 18 19 20 21 22 23 24 25 26 27 28 29 30 31 32 33 34 35 36 37 38 39 40 41 42 43 44 45 46 47 48 49 50
000
NZUS93 KARX 152359
HRRWXR

CURRENT HOURLY OBSERVATIONS ACROSS
MUCH OF THE UPPER MISSISSIPPI VALLEY
NATIONAL WEATHER SERVICE LA CROSSE WI
700 PM CDT MON SEP 15 2014


...SOUTHEAST MINNESOTA...


CITY           SKY/WX    TMP DP  RH WIND       PRES   REMARKS
ROCHESTER      CLEAR     52  42  69 NW6       30.21R
ROCHESTER/MAYO CLOUDY    57  36  45 NW7       30.20R
WINONA         MOCLDY    55  43  62 N5        30.18S
AUSTIN         MOCLDY    54  43  66 NW5       30.20S
ALBERT LEA     CLEAR     55  41  58 CALM      30.21S
DODGE CENTER   CLEAR     54  43  66 NW7       30.21R
PRESTON        CLOUDY    54  47  76 NW5       30.20R
OWATONNA       CLEAR     55  41  58 CALM      30.21R
FARIBAULT      CLEAR     57  37  47 CALM      30.21S
$$

...ELSEWHERE IN MINNESOTA...


CITY           SKY/WX    TMP DP  RH WIND       PRES   REMARKS
MINNEAPOLIS    PTCLDY    57  37  47 NW7       30.20R
INTNL FALLS    CLEAR     53  37  54 W5        30.09F
DULUTH         PTCLDY    53  36  52 W6        30.15S
RED WING       CLEAR     57  39  51 CALM      30.18S
REDWOOD FALLS  CLEAR     59  38  45 NW7       30.21S
MANKATO        CLEAR     57  37  47 N3        30.21S
WORTHINGTON    CLEAR     57  39  51 NW5       30.23S
FAIRMONT       CLEAR     57  39  51 CALM      30.22S
$$

...SOUTHWEST WISCONSIN...


CITY           SKY/WX    TMP DP  RH WIND       PRES   REMARKS
LA CROSSE      CLEAR     57  43  59 NW7       30.17R
PRAIRIE DU CHI CLEAR     56  45  66 CALM      30.17S
BOSCOBEL       CLEAR     56  48  74 W3        30.17R
LONE ROCK      NOT AVBL
PLATTEVILLE    CLEAR     55  47  75 CALM      30.17S
FORT MC COY    PTCLDY    58  43  57 NW5       30.17R
VIROQUA        FAIR      55  46  74 NW5       30.17R
WIS DELLS      CLEAR     55  45  67 CALM      30.15S
$$

...ELSEWHERE IN WISCONSIN...


CITY           SKY/WX    TMP DP  RH WIND       PRES   REMARKS
MILWAUKEE      MOCLDY    53  49  86 N3        30.14R
MADISON        PTCLDY    52  46  80 NW3       30.15S
GREEN BAY      CLEAR     55  49  80 SW5       30.11S
EAU CLAIRE     NOT AVBL
BLACK RVR FLS  FAIR      56  41  58 NW5       30.16S
MEDFORD        CLEAR     53  38  56 NW6       30.15R
WAUSAU         CLEAR     56  37  49 NW7       30.12R
WIS RAPIDS     LGT RAIN  53  44  71 NW6       30.15R
MARSHFIELD     CLEAR     52  42  69 NW7       30.15R
RICE LAKE      CLEAR     53  37  55 NW3       30.19S
$$

...NORTHEAST IOWA...


CITY           SKY/WX    TMP DP  RH WIND       PRES   REMARKS
WATERLOO       CLEAR     54  45  71 NW7       30.19R
DUBUQUE        CLEAR     52  48  86 N7        30.18R
DECORAH        PTCLDY    55  46  71 NW5       30.18R
MASON CITY     PTCLDY    55  43  63 NW7       30.22S
CHARLES CITY   CLOUDY    57  46  67 N3        30.21R
OELWEIN        CLOUDY    57  45  62 N5        30.19S
$$

...ELSEWHERE IN IOWA...


CITY           SKY/WX    TMP DP  RH WIND       PRES   REMARKS
DES MOINES     MOCLDY    60  46  59 N5        30.21R
IOWA CITY      MOCLDY    58  49  72 N9        30.19R
FORT DODGE     MOCLDY    57  45  62 CALM      30.23S
MARSHALLTOWN   CLEAR     56  46  69 N7        30.20S
CEDAR RAPIDS   CLOUDY    57  49  74 N8        30.18R
$$

...NORTHERN ILLINOIS...


CITY           SKY/WX    TMP DP  RH WIND       PRES   REMARKS
CHICAGO-OHARE  CLOUDY    57  53  86 NE8       30.12R
DUPAGE         CLOUDY    56  52  86 N6        30.11S
CHICAGO-MIDWAY CLOUDY    60  54  80 NW7       30.11S
MOLINE         CLOUDY    58  49  72 N9        30.16R
ROCKFORD       NOT AVBL
STERLING       CLOUDY    55  52  88 N6        30.15R
PEORIA         MOCLDY    60  56  86 NE5       30.12R
$$

NOTE: "FAIR" INDICATES FEW OR NO CLOUDS BELOW 12,000 FEET WITH NO
SIGNIFICANT WEATHER AND/OR OBSTRUCTIONS TO VISIBILITY. WIND
SPEEDS ARE IN MILES-PER-HOUR.



USA.gov is the U.S. government's official web portal to all federal, state and local government web resources and services.